User: anonymous   Login
Location: Gradaro
(45.0833°N, 10.8833°E)
Time: 10:16:54
(UTC+00:00)
Language:

SL-4 R/B - Orbit

View from above orbital plane
View from above orbital plane
View from above satellite
View from above satellite

Ground track
Ground track

The orbit data is extracted from the following two-line orbital elements,

1 39679U 14021B   21063.47319383  .00000720  00000-0  52461-4 0  9993
2 39679  51.6166 340.4434 0171151 126.9486 234.7297 15.06782128378221
Epoch (UTC): 04 March 2021 11:21:23
Eccentricity: 0.0171151
inclination: 51.6166°
perigee height: 427 km
apogee height: 664 km
right ascension of ascending node: 340.4434°
argument of perigee: 126.9486°
revolutions per day: 15.06782128
mean anomaly at epoch: 234.7297°
orbit number at epoch: 37822

The dashed part of the orbit path shows where the satellite is in the earth's shadow,  

DLR